SNUGLITE 2
1 52899U 22065F   26179.92045935  .00000912  00000-0  18186-3 0  9999
2 52899  98.2214 324.7309 0007182 357.4285   2.6879 14.64367930212719
UmKA 1 (RS40S)
1 57172U 23091G   26180.52884965  .00005798  00000-0  26430-3 0  9998
2 57172  97.5047 239.1789 0014191  79.5284 280.7550 15.20956934165885
CubeBel-2 (EU11S)
1 57175U 23091K   26180.48499847  .00012167  00000-0  42774-3 0  9994
2 57175  97.5051 243.8133 0010931  77.0895 283.1565 15.29456477166180
RS-38S
1 57189U 23091Z   26180.52374782  .00015195  00000-0  42951-3 0  9995
2 57189  97.5093 250.2583 0007254  38.6374 321.5387 15.36409727166588
SONATE-2
1 59112U 24043Q   26180.39668484  .00037714  00000-0  47296-3 0  9999
2 59112  97.5535 331.5497 0007231 155.9821 204.1774 15.59630606129794
GRBBeta
1 60237U 24128C   26180.43153596  .00003058  00000-0  21587-3 0  9990
2 60237  61.9878 173.3040 0039057 137.2474 223.1669 15.06710402108115
Curium One
1 60242U 24128H   26180.53221727  .00006171  00000-0  35757-3 0  9992
2 60242  61.9766 162.0447 0038293 133.1732 227.2575 15.12660253108325
ROBUSTA-3A
1 60243U 24128J   26180.50393337  .00005127  00000-0  30624-3 0  9995
2 60243  61.9843 164.6835 0039912 130.5973 229.8606 15.11790512108287
CatSat
1 60246U 24125J   26180.52487631  .00057929  00000-0  70175-3 0  9990
2 60246  97.2070  33.1979 0022191 136.9431 223.3567 15.60174159109310
HYPERVIEW-1G (RS66S)
1 61772U 24199AP  26180.36900012  .00160477  00000-0  87595-3 0  9998
2 61772  97.2841  60.7329 0006687 181.0363 179.0892 15.79418880136593
AO-123
1 61781U 24199AY  26180.47963412  .00006931  00000-0  20061-3 0  9992
2 61781  97.2987  49.0403 0011914 263.3422  96.6466 15.35846050135817
JINJUSat 1B
1 63210U 25052A   26179.95532604  .00015526  00000-0  47582-3 0  9993
2 63210  97.3999  76.7284 0004990  66.1970 293.9796 15.33865088 71904
NUSHSAT 1
1 63211U 25052B   26179.97979482  .00019555  00000-0  55169-3 0  9991
2 63211  97.3974  77.3595 0004712  71.9107 288.2650 15.36427203 71955
TEVEL2-4
1 63213U 25052D   26180.50440252  .00017234  00000-0  50864-3 0  9991
2 63213  97.3895  76.9189 0004757  80.6436 279.5345 15.35036217 72005
TEVEL2-5
1 63214U 25052E   26179.67876933  .00017696  00000-0  52563-3 0  9997
2 63214  97.3896  76.0362 0004746  83.6484 276.5299 15.34828420 71878
TEVEL2-6
1 63215U 25052F   26179.69136113  .00017169  00000-0  51064-3 0  9999
2 63215  97.3902  76.0332 0004600  84.2867 275.8901 15.34794418 71876
TEVEL2-1
1 63217U 25052H   26179.98532116  .00017180  00000-0  51974-3 0  9999
2 63217  97.3868  75.9379 0004999  91.1261 269.0554 15.34253524 71905
TEVEL2-3
1 63218U 25052J   26180.50126544  .00016419  00000-0  49566-3 0  9992
2 63218  97.3873  76.4778 0004842  91.2218 268.9580 15.34330823 71984
TEVEL2-2
1 63219U 25052K   26179.65946029  .00016937  00000-0  51245-3 0  9997
2 63219  97.3871  75.6148 0005015  92.1173 268.0645 15.34253315 71857
TEVEL2-9
1 63237U 25052AD  26179.65180651  .00015749  00000-0  50741-3 0  9998
2 63237  97.3933  74.9572 0008303 100.5589 259.6589 15.32242983 71789
TEVEL2-7
1 63238U 25052AE  26179.95622217  .00014794  00000-0  48125-3 0  9993
2 63238  97.3936  75.1722 0008392  99.7965 260.4224 15.31946752 71823
TEVEL2-8
1 63239U 25052AF  26179.96458924  .00015124  00000-0  49212-3 0  9993
2 63239  97.3936  75.1570 0008450 100.4916 259.7278 15.31932731 71828
SPIRONE
1 66657U 25274H   26179.04119741  .00001833  00000-0  17894-3 0  9999
2 66657  97.7483 108.1776 0011664 346.4672  13.6233 14.93590192 31847
K-HERO
1 66660U 25274L   26179.77949890  .00001665  00000-0  16127-3 0  9990
2 66660  97.7487 109.0747 0013541 347.0282  13.0588 14.94005525 31965
SNUGLITE-III DURI
1 66661U 25274M   26180.30277807  .00001866  00000-0  17997-3 0  9993
2 66661  97.7484 109.6118 0014167 345.9973  14.0852 14.94044340 32043
SAKHACUBE-CHOLBON
1 67290U 25313AU  26179.44635729  .00008895  00000-0  35805-3 0  9997
2 67290  97.3941 254.3410 0007886 322.1745  37.8938 15.25082446 27690
RS95S (QMR-KWT-2)
1 67291U 25313AV  26180.14500566  .00012367  00000-0  47457-3 0  9992
2 67291  97.3929 255.2320 0007381 315.5978  44.4668 15.26591769 27813
Ten-Koh2
1 68261U 25241B   26180.47522983  .00004464  00000-0  19525-3 0  9997
2 68261  51.6674 261.1457 0005214 178.5726 181.5268 15.24027313 16789
JACK-002
1 68417U 26067B   26179.81777928  .00006367  00000-0  30280-3 0  9999
2 68417  97.4570 138.2654 0001254 162.6275 197.5003 15.19532319 13716
DISCO 2
1 68431U 26067R   26180.43405051  .00008134  00000-0  38896-3 0  9995
2 68431  97.4604 138.8629 0001369  21.5236 338.6056 15.19252992 13807
HADES-SA (SpinnyONE)
1 68446U 26067AG  26179.81393649  .00017536  00000-0  82830-3 0  9993
2 68446  97.4405 137.9385 0008529  52.2410 307.9596 15.19452336 13690
PARUS-6U1
1 68456U 26067AS  26180.45264021  .00005282  00000-0  26566-3 0  9996
2 68456  97.4557 138.6283 0006576  39.0688 321.1020 15.17642464 13796
SAL-E
1 68458U 26067AU  26179.85267808  .00007271  00000-0  36142-3 0  9997
2 68458  97.4480 137.9666 0007187  48.7743 311.4109 15.17920614 13705
FSI-SAT 2
1 68792U 26088A   26179.90649550  .00004349  00000-0  29437-3 0  9997
2 68792  97.5070 328.8721 0015522  70.1715 290.1184 15.06922997 10050
OrigamiSat 2
1 68795U 26088D   26179.96663286  .00011765  00000-0  74560-3 0  9995
2 68795  97.5077 329.1026 0015348  42.6144 317.6273 15.08993328 10072
ARICA 2
1 68796U 26088E   26180.36691689  .00004684  00000-0  30326-3 0  9994
2 68796  97.5070 329.4753 0016357  40.9922 319.2533 15.08520321 10135
WASEDA-SAT-ZERO-II
1 68797U 26088F   26180.36075624  .00006157  00000-0  39464-3 0  9999
2 68797  97.5069 329.4822 0016105  40.8586 319.3847 15.08774661 10134
MANGARO-II-Piscus
1 68798U 26088G   26180.35024096  .00003769  00000-0  24218-3 0  9993
2 68798  97.5081 329.5045 0019920  43.4307 316.8486 15.08870437 10134
IO-86
1 40931U          25360.30710720  .00000000  00000-0  12800-3 0    00
2 40931   6.0006 332.5373 0012733 338.8432   8.1437 14.79075515    01
LILIUM-4                
1 71922C 26067AC  26089.50133053 -.00014632  00000+0 -74472-3 0    04
2 71922  97.4497  49.1617 0004341   5.9603 355.7042 15.16896692    16
